Location: Holmbach
(49.5093°N, 8.8411°E)
Time: 05:24:39
(UTC+00:00)

Daily predictions for brighter satellites

Satellite Brightness Start Highest point End
(mag) Time Altitude Azimuth Time Altitude Azimuth Time Altitude Azimuth
Cosmos 1331 Rocket 4.4 00:06:53 52° WNW 00:07:00 52° WNW 00:12:10 10° NNE
ATLAS 2AS CENTAUR R/B 3.0 00:09:45 41° WSW 00:12:07 62° NW 00:18:53 10° NE
IDEFIX/ARIANE 42P 4.0 00:11:42 10° NE 00:15:58 25° E 00:16:41 24° ESE
Meteor 1-5 Rocket 4.0 00:15:42 10° NNW 00:20:58 75° W 00:20:58 75° W
Cosmos 1953 Rocket 4.1 00:18:22 10° N 00:22:18 57° NE 00:22:18 57° NE
Cosmos 1980 Rocket 2.6 00:19:30 10° NW 00:24:20 50° W 00:24:20 50° W
USA 234 4.0 00:20:32 10° E 00:26:48 51° NNE 00:33:05 10° WNW
Cosmos 44 Rocket 4.1 00:29:47 44° ESE 00:29:47 44° ESE 00:34:13 10° NE
COSMOS 2406 4.0 00:32:29 38° ESE 00:33:04 39° ESE 00:38:22 10° NE
Cosmos 1825 Rocket 4.4 00:29:14 10° NNW 00:32:19 43° NW 00:32:19 43° NW
Meteor 2-10 4.1 00:30:35 10° NNW 00:36:02 66° W 00:36:02 66° W
Cosmos 2369 3.5 00:30:41 10° NNW 00:36:24 78° WSW 00:36:37 76° SW
Cosmos 1634 Rocket 4.1 00:35:56 53° SE 00:37:11 65° E 00:43:18 10° NNE
Cosmos 724 4.3 00:44:49 62° SSE 00:45:31 67° ESE 00:51:27 10° NE
Cosmos 2084 3.9 00:46:23 54° N 00:46:23 54° N 00:49:58 10° NE
Cosmos 1627 Rocket 4.4 00:41:13 10° NNW 00:47:28 72° W 00:48:29 61° SSW
Spot 1 4.2 00:43:30 10° NNE 00:47:07 67° NNE 00:47:07 67° NNE
Cosmos 1607 4.0 00:47:22 53° SSE 00:48:13 58° ESE 00:54:21 10° NE
Cosmos-2242 3.2 00:52:12 66° NE 00:52:12 66° NE 00:55:57 10° NNE
Cosmos 2360 Rocket 3.5 00:46:43 10° NNW 00:52:02 39° NE 00:57:19 10° ESE
Cosmos 2333 Rocket 2.7 00:47:37 10° NNW 00:53:14 59° NE 00:57:05 21° SE
USA 281 3.2 00:51:27 27° SE 00:55:16 79° ENE 01:01:51 10° NNW
Cosmos 2082 Rocket 2.2 00:59:24 60° WSW 01:00:21 74° WNW 01:06:07 10° NNE
Meteor 2-2 Rocket 4.2 01:02:52 59° S 01:03:58 81° E 01:09:37 10° NNE
Cosmos 2279 Rocket 4.0 01:03:59 47° SSE 01:05:52 74° E 01:12:07 10° NNE
Cosmos 2278 4.0 01:01:20 10° NNW 01:07:03 67° ENE 01:11:11 19° SE
Cosmos 2322 Rocket 3.0 01:01:58 10° NNW 01:07:28 51° NE 01:12:58 10° SE
Cosmos 1486 Rocket 4.0 01:02:37 10° NNW 01:07:51 77° ENE 01:09:36 43° SE
Cosmos 2221 3.6 01:07:40 31° ESE 01:08:19 33° E 01:12:02 10° NNE
NPP 4.1 01:03:10 10° NNE 01:08:26 53° E 01:09:56 40° SSE
Resurs 1-4 Rocket 4.1 01:04:57 10° NE 01:08:59 22° E 01:12:17 13° SE
NOSS 3-3 (A) 3.8 01:14:12 51° SSE 01:15:09 59° SE 01:21:11 10° NE
ACS3 Solar Sail 1.9 01:11:02 10° N 01:16:59 62° WNW 01:18:33 47° SW
Cosmos 1777 Rocket 4.0 01:13:12 10° NNW 01:18:30 81° ENE 01:20:41 36° SSE
Cosmos 2219 Rocket 3.5 01:16:05 10° NNW 01:21:23 40° NE 01:26:40 10° ESE
SL-16 R/B 2.1 01:16:55 10° NNW 01:22:37 80° WSW 01:24:53 38° SSE
CZ-4C R/B 2.0 01:22:06 49° W 01:22:59 59° NW 01:28:33 10° NE
H-2A R/B 4.2 01:19:54 10° NE 01:23:38 20° E 01:27:24 10° SE
GP-B 3.8 01:19:37 10° NNW 01:23:25 40° WNW 01:23:25 40° WNW
Cosmos 1271 Rocket 3.4 01:27:38 39° E 01:27:43 39° E 01:30:59 10° NNE
Meteor 1-14 Rocket 4.2 01:24:03 10° N 01:29:50 82° ENE 01:32:37 32° SSE
ATLAS 3B R/B 3.9 01:23:59 10° WNW 01:29:23 26° W 01:29:23 26° W
SL-4 R/B 2.7 01:31:35 38° ESE 01:31:35 38° ESE 01:34:02 10° ESE
USA 267 3.8 01:25:24 10° ENE 01:31:39 44° SE 01:34:01 33° S
NOSS 3-3 (C) 3.8 01:30:27 47° S 01:31:53 64° SE 01:38:03 10° NE
Cosmos 2058 Rocket 3.4 01:32:04 50° W 01:32:14 50° WNW 01:36:33 10° N
Cosmos 2266 Rocket 4.0 01:29:16 10° N 01:35:26 80° E 01:39:09 25° SSE
Cosmos 1470 2.7 01:33:27 10° N 01:36:16 60° N 01:36:16 60° N
Gbstr 26 Del rocket 2.7 01:37:23 66° ESE 01:37:23 66° ESE 01:40:38 10° ESE
KORONAS-FOTON 4.1 01:38:28 46° NNW 01:38:28 46° NNW 01:41:08 10° N
USA 290 4.2 01:37:48 20° ESE 01:38:03 21° ESE 01:40:29 10° NE
Cosmos 909 Rocket 4.4 01:37:58 32° WSW 01:40:45 55° NW 01:47:06 10° NE
Cosmos 1536 4.1 01:44:40 10° NNW 01:46:48 25° WNW 01:46:48 25° WNW
Cosmos 2333 4.3 01:42:23 10° NNW 01:48:05 75° ENE 01:53:47 10° SE
DMSP B5D2-2 4.2 01:45:23 17° SSE 01:49:26 73° ENE 01:54:37 10° N
Cosmos 1812 Rocket 3.6 01:49:34 43° S 01:50:53 73° E 01:55:13 10° NNE
Meteor 2-6 Rocket 4.3 01:49:06 40° SW 01:51:13 68° WNW 01:57:07 10° N
NOSS 3-4 (A) 4.1 01:46:13 10° NW 01:52:46 70° NE 02:00:33 10° SE
NOSS 3-4 (C) 4.1 01:46:45 10° NW 01:53:20 70° NE 02:01:06 10° SE
IDEFIX/ARIANE 42P 2.9 01:50:41 10° N 01:55:42 52° WNW 01:57:22 37° WSW
ISS -1.0 01:56:14 10° SE 01:56:14 10° SE 01:56:49 10° ESE
COSMOS 2441 4.3 01:53:00 10° NNE 01:57:49 86° ESE 01:59:44 37° SSW
Envisat 3.4 01:53:23 10° NNE 01:58:23 58° E 02:01:23 24° S
Aureole 1 Rocket 3.8 01:55:28 10° NNW 01:59:28 56° ENE 02:04:30 10° SE
Cosmos 1707 4.4 02:03:05 14° NW 02:03:05 14° NW 02:04:05 10° NNW
Cosmos 2084 Rocket 3.3 01:58:55 10° NW 02:03:08 88° SW 02:07:23 10° SE
ATLAS 2AS CENTAUR R/B 4.3 01:58:30 10° WNW 02:04:18 28° NNW 02:10:05 10° NE
Iridium 4 Rocket 3.3 02:03:00 28° S 02:05:30 81° E 02:10:37 10° N
MOZ.5/SAFIR/RUBIN 5/SL-8 3.8 02:05:32 35° SSW 02:07:21 60° WSW 02:11:59 10° NNW
Meteor 1-27 Rocket 4.3 02:03:31 17° S 02:08:07 59° E 02:13:57 10° NNE
H-2A R/B 2.2 02:06:26 23° SSE 02:08:34 73° ENE 02:12:09 10° N
USA 234 3.3 02:02:58 10° ESE 02:09:32 87° NNE 02:16:07 10° WNW
Cosmos 1975 2.9 02:07:02 10° NNW 02:10:32 44° W 02:10:35 44° W
Cosmos 44 Rocket 4.3 02:08:21 24° W 02:10:49 40° NW 02:15:43 10° NNE
Cosmos 990 Rocket 3.8 02:06:03 10° NNW 02:11:10 70° WSW 02:15:53 12° SSE
ADEOS II 3.0 02:06:52 10° NNE 02:11:54 46° E 02:16:28 12° S
Cosmos 1763 Rocket 3.5 02:13:16 31° SSW 02:15:51 82° WNW 02:21:11 10° NNE
Cosmos 1238 Rocket 3.0 02:15:05 29° SE 02:16:06 43° E 02:18:58 10° NNE
ALOS 2.5 02:11:58 10° NNE 02:16:30 63° ESE 02:19:31 20° S
MSX 4.5 02:11:47 10° N 02:17:07 41° WNW 02:19:47 26° WSW
COSMOS 2406 3.9 02:14:30 26° WSW 02:17:19 43° NW 02:22:49 10° NNE
COSMOS 2428 4.2 02:15:01 10° NNW 02:20:23 40° NE 02:25:43 10° ESE
CZ-2D R/B 2.3 02:15:17 10° NNE 02:20:33 71° ESE 02:24:32 18° S
SL-16 R/B 3.8 02:15:27 10° SE 02:21:17 43° ENE 02:27:09 10° N
ADEOS Rocket 3.7 02:16:03 10° N 02:23:29 64° WNW 02:28:49 22° SW
Spot 2 4.3 02:23:31 10° SSE 02:28:20 82° WSW 02:33:20 10° NNW
Cosmos 1898 Rocket 4.0 02:24:08 10° NNW 02:29:16 61° ENE 02:34:22 10° SE
Cosmos 1354 Rocket 4.3 02:28:34 10° NNW 02:33:37 46° WSW 02:38:17 12° S
Cosmos 1937 Rocket 4.4 02:28:41 10° NNW 02:33:47 51° ENE 02:38:47 10° SE
FENGYUN 3A 4.5 02:30:28 10° N 02:35:23 36° WNW 02:38:13 21° WSW
Cosmos 2360 Rocket 2.5 02:30:45 10° NW 02:36:05 44° WSW 02:41:25 10° S
Cosmos 2333 Rocket 3.1 02:32:29 10° NW 02:37:09 27° WSW 02:39:00 22° SW
SL-19 R/B 4.5 02:32:07 10° NNE 02:37:49 76° ESE 02:43:26 12° SSW
Alouette 2 Rocket 3.1 02:33:51 10° NNW 02:38:00 78° WSW 02:41:32 10° S
USA 305 3.4 02:38:24 15° NNW 02:38:48 15° NNW 02:39:51 10° NNE
EP 1 4.1 02:37:28 10° NW 02:40:04 84° SW 02:42:51 10° SE
USA 281 4.2 02:38:17 21° SW 02:40:23 24° W 02:45:36 10° NW
Meteor 2-10 Rocket 3.9 02:38:28 10° N 02:43:34 66° ENE 02:48:48 10° SSE
Cosmos 540 Rocket 3.7 02:41:18 23° SW 02:44:25 55° WNW 02:49:30 10° NNE
H-2A R/B 3.8 02:41:51 10° NE 02:45:19 28° E 02:48:45 10° SSE
Cosmos 2221 3.7 02:43:58 21° W 02:45:23 25° WNW 02:48:51 10° NNW
Cosmos 2082 Rocket 4.1 02:41:23 10° W 02:45:27 19° NW 02:49:31 10° N
Cosmos 1553 Rocket 4.4 02:41:32 10° S 02:47:37 64° E 02:53:50 10° NNE
USA 276 3.2 02:50:08 13° SE 02:50:08 13° SE 02:50:27 10° SE
Resurs 1-4 Rocket 2.2 02:43:56 10° N 02:49:12 64° WNW 02:53:20 16° SSW
Cosmos 468 Rocket 4.0 02:46:38 18° SSW 02:50:40 81° WNW 02:56:00 10° NNE
Cosmos 2322 Rocket 2.9 02:46:22 10° NW 02:51:16 31° WSW 02:56:10 10° SSW
BREEZE-M DEB (TANK) 3.1 02:50:12 16° W 02:52:31 77° SSW 03:00:53 10° ESE
DNEPR-1 R/B 4.4 02:49:17 10° NW 02:54:32 56° SW 03:00:56 10° SSE
Cosmos 1766 Rocket 3.7 02:52:54 10° NNW 02:57:08 50° W 03:01:17 10° S
ACS3 Solar Sail 3.7 02:55:23 10° NNW 02:58:15 14° NW 03:01:07 10° W
Cosmos 1833 4.3 02:53:58 17° SW 02:58:21 67° WNW 03:04:02 10° NNE
Cosmos 1271 Rocket 4.3 03:01:02 14° W 03:02:09 16° WNW 03:04:25 10° NNW
H-2A R/B 2.1 02:58:17 10° N 03:03:22 67° WNW 03:08:28 11° SSW
CRYOSAT 2 4.3 02:59:10 10° S 03:04:01 67° W 03:08:54 10° N
Cosmos 2219 Rocket 2.6 03:00:05 10° NW 03:05:20 41° WSW 03:10:35 10° S
Cosmos 2237 Rocket 3.8 03:00:04 10° NNW 03:05:24 39° NE 03:10:41 10° ESE
SL-16 R/B 3.8 03:02:58 10° WNW 03:05:45 14° W 03:06:38 14° WSW
SL-4 R/B 3.0 03:05:08 15° W 03:07:12 23° SW 03:10:11 10° SSE
Meteor 2-11 Rocket 4.5 03:01:50 10° NNW 03:07:56 66° W 03:14:00 10° S
SL-14 R/B 3.9 03:05:14 10° S 03:09:02 55° E 03:12:51 10° NNE
CZ-3 Stage 3 4.5 03:05:05 13° SW 03:11:45 31° SSE 03:32:06 10° ESE
USA 290 3.5 03:10:18 16° WSW 03:12:03 26° WNW 03:14:48 10° N
CZ-4C R/B 4.0 03:08:22 10° WNW 03:12:28 24° NNW 03:17:28 10° NE
ARGOS 3.4 03:08:58 10° NNE 03:14:23 75° ESE 03:19:45 10° S
USA 267 3.4 03:08:23 10° ENE 03:14:57 76° NNW 03:21:22 11° WSW
Cosmos 1408 Rocket 4.1 03:11:02 10° N 03:15:19 62° ENE 03:19:32 10° SSE
Cosmos 1745 Rocket 4.4 03:09:51 10° N 03:16:02 68° ENE 03:22:07 10° SSE
METEOR-M 4.1 03:11:40 10° NNE 03:16:59 74° WNW 03:22:17 10° SSW
Gbstr 26 Del rocket 3.9 03:19:48 10° W 03:22:41 21° SW 03:25:35 10° S
Cosmos 2322 3.7 03:20:06 10° NNW 03:25:49 72° WSW 03:31:28 10° SSE
NOSS 3 (A) 4.0 03:29:11 10° NW 03:31:29 85° SW 03:34:28 10° SE
ISS -3.2 03:29:12 11° SW 03:32:21 48° SSE 03:35:39 10° ENE
Envisat 4.3 03:32:57 10° N 03:36:58 24° WNW 03:40:57 10° WSW
BREEZE-M DEB (TANK) 2.6 03:31:46 10° WSW 03:37:49 53° SSE 03:40:29 10° E
Meteor 2-4 Rocket 4.3 03:35:03 10° SW 03:40:00 37° WNW 03:44:59 10° N
Cosmos 1461 2.8 03:37:15 10° SW 03:40:56 61° NW 03:44:38 10° NE
H-2A R/B 4.2 03:42:43 10° W 03:42:58 10° W 03:43:13 10° W
NOSS 3-4 (A) 4.4 03:37:19 10° NW 03:43:29 36° WSW 03:50:33 10° S
Meteor 1-28 Rocket 3.2 03:40:29 10° SSE 03:43:43 70° ENE 03:46:59 10° N
NOSS 3-4 (C) 4.4 03:37:50 10° NW 03:44:03 36° WSW 03:51:09 10° S
AQUA 3.9 03:39:57 10° N 03:44:35 61° WNW 03:49:11 10° SSW
Cosmos 1066 Rocket 4.5 03:40:15 10° SW 03:45:24 47° WNW 03:50:34 10° N
NOSS 0 Rocket 3.9 03:39:58 10° NNW 03:46:10 75° WSW 03:52:18 10° SSE
CZ-3 R/B 4.2 03:51:31 10° WSW 04:08:36 25° SSW 04:15:53 10° SSE
